Regional Weather Roundup
Issued by NWS

Home | Current Version | Previous Version | Graphics & Text | Print | Product List | Glossary On
Versions: 1 2 3 4 5 6 7 8 9 10 11 12 13 14 15 16 17 18 19 20 21 22 23 24 25 26 27 28 29 30 31 32 33 34 35 36 37 38 39 40 41 42 43 44 45 46 47 48 49 50
433
ASUS43 KDTX 161810
RWRMI
MICHIGAN HOURLY REGIONAL WEATHER ROUNDUP
NATIONAL WEATHER SERVICE DETROIT/PONTIAC MI
ISSUED BY NATIONAL WEATHER SERVICE GRAND RAPIDS MI
200 PM EDT WED AUG 16 2017

NOTE: "FAIR" INDICATES FEW OR NO CLOUDS BELOW 12,000 FEET WITH NO
SIGNIFICANT WEATHER AND/OR OBSTRUCTION TO VISIBILITY.

MIZ047>049-052>055-059>063-066>070-074>076-081>083-161900-
SOUTHEAST LOWER MICHIGAN

CITY           SKY/WX    TMP DP  RH WIND       PRES   REMARKS
ADRIAN         MOSUNNY   84  50  31 VRB6      30.05F
6HR MIN TEMP:  65; 6HR MAX TEMP:  84;

ALMA           SUNNY     81  60  49 SE6       30.04F
ANN ARBOR      SUNNY     82  60  47 SE9       30.05F
BAD AXE        CLOUDY    74  62  66 NE9       30.09S
DETROIT CITY   MOSUNNY   80  59  48 SE9       30.07F
6HR MIN TEMP:  65; 6HR MAX TEMP:  80;

DETROIT        MOSUNNY   81  58  45 S8        30.06F
6HR MIN TEMP:  67; 6HR MAX TEMP:  82;

FLINT          MOSUNNY   80  62  54 SE10      30.06F
6HR MIN TEMP:  62; 6HR MAX TEMP:  80;

GROSSE ILE     SUNNY     79  58  49 S8        30.06F
6HR MIN TEMP:  67; 6HR MAX TEMP:  79;

HILLSDALE      PTSUNNY   82  61  47 S7        30.05S
HOWELL         PTSUNNY   82  59  45 S9        30.05F
6HR MIN TEMP:  63; 6HR MAX TEMP:  82;


CITY           SKY/WX    TMP DP  RH WIND       PRES   REMARKS
JACKSON          N/A    N/A N/A N/A MISG      30.04F
LANSING        PTSUNNY   81  64  56 S5        30.04F
6HR MIN TEMP:  67; 6HR MAX TEMP:  82;

MASON          MOSUNNY   81  66  61 S6        30.05F
MONROE         SUNNY     80  61  53 SE9       30.06F
6HR MIN TEMP:  66; 6HR MAX TEMP:  80;

MT. CLEMENS    PTSUNNY   77  62  59 S7        30.06F
6HR MIN TEMP:  64; 6HR MAX TEMP:  77;

PONTIAC        PTSUNNY   80  59  48 S10       30.06F
6HR MIN TEMP:  65; 6HR MAX TEMP:  80;

PORT HOPE        N/A     70  64  81 E12       30.08F
6HR MIN TEMP:  62; 6HR MAX TEMP:  71;

PORT HURON     MOSUNNY   81  57  44 SE6       30.07F
TRI CITIES     PTSUNNY   79  63  57 VRB3      30.06F
6HR MIN TEMP:  64; 6HR MAX TEMP:  79;

YPSILANTI      SUNNY     85  58  39 S8        30.06F
6HR MIN TEMP:  66; 6HR MAX TEMP:  86;

$$
MIZ043>046-050>051-056>058-064>065-071>073-077>080-161900-
SOUTHWEST LOWER MICHIGAN

CITY           SKY/WX    TMP DP  RH WIND       PRES   REMARKS
BATTLE CREEK   MOSUNNY   84  64  50 SW6       30.03F
6HR MIN TEMP:  67; 6HR MAX TEMP:  85;

BENTON HARBOR  PTSUNNY   89  65  44 E9        29.99F HX  91
6HR MIN TEMP:  62; 6HR MAX TEMP:  89;

BIG RAPIDS     CLOUDY    79  63  56 SE3G16    30.03S
6HR MIN TEMP:  56; 6HR MAX TEMP:  80;

COLDWATER      MOSUNNY   84  61  45 SE6       30.03F
6HR MIN TEMP:  66; 6HR MAX TEMP:  84;

HOLLAND        PTSUNNY   85  65  51 S7        30.01F
6HR MIN TEMP:  63; 6HR MAX TEMP:  85;

GRAND RAPIDS   PTSUNNY   82  61  48 VRB5      30.01F
6HR MIN TEMP:  64; 6HR MAX TEMP:  85;

KALAMAZOO      MOSUNNY   84  62  47 VRB5      30.02F
6HR MIN TEMP:  64; 6HR MAX TEMP:  86;

MARSHALL       MOSUNNY   81  63  54 CALM      30.03F
6HR MIN TEMP:  65; 6HR MAX TEMP:  83;

MOUNT PLEASANT SUNNY     81  61  50 SE10      30.04F
6HR MIN TEMP:  60; 6HR MAX TEMP:  81;

MUSKEGON       MOSUNNY   87  61  41 SW10      30.00F
6HR MIN TEMP:  63; 6HR MAX TEMP:  87;

STURGIS        MOSUNNY   82  66  59 SE3       30.02S
6HR MIN TEMP:  67; 6HR MAX TEMP:  84;

$$
MIZ016>042-161900-
NORTHERN LOWER MICHIGAN

CITY           SKY/WX    TMP DP  RH WIND       PRES   REMARKS
ALPENA         MOSUNNY   72  63  73 E13       30.09F
6HR MIN TEMP:  61; 6HR MAX TEMP:  73;

BEAVER ISLAND  SUNNY     75  62  65 E8        30.05F
6HR MIN TEMP:  59; 6HR MAX TEMP:  75;

BELLAIRE       MOSUNNY   79  59  50 E5        30.02F
6HR MIN TEMP:  58; 6HR MAX TEMP:  79;

CADILLAC       PTSUNNY   78  60  53 S10G17    30.05S
CHARLEVOIX     PTSUNNY   76  60  57 E8        30.05F
6HR MIN TEMP:  62; 6HR MAX TEMP:  77;

GAYLORD        CLOUDY    75  59  57 VRB6      30.06F
6HR MIN TEMP:  59; 6HR MAX TEMP:  75;

HOUGHTON LAKE  MOSUNNY   76  62  62 SE9       30.07S
6HR MIN TEMP:  59; 6HR MAX TEMP:  78;

OSCODA         CLOUDY    72  62  70 E9        30.09S
6HR MIN TEMP:  67; 6HR MAX TEMP:  73;

PELLSTON       PTSUNNY   76  61  59 E7        30.06F
6HR MIN TEMP:  54; 6HR MAX TEMP:  76;

TRAVERSE CITY  PTSUNNY   82  62  50 VRB7      30.00F
6HR MIN TEMP:  62; 6HR MAX TEMP:  82;

LUDINGTON      SUNNY     74  63  66 SW7       30.02S
6HR MIN TEMP:  57; 6HR MAX TEMP:  77;

$$
MIZ007>008-015-161900-
EASTERN UPPER MICHIGAN

CITY           SKY/WX    TMP DP  RH WIND       PRES   REMARKS
KINROSS        CLOUDY    72  60  66 E12       30.08F
6HR MIN TEMP:  57; 6HR MAX TEMP:  72;

MACKINAC ISLAN MOSUNNY   68  63  83 E12G21    30.07F
6HR MIN TEMP:  64; 6HR MAX TEMP:  69;

NEWBERRY       MOSUNNY   73  60  65 SE7       30.06S
6HR MIN TEMP:  52; 6HR MAX TEMP:  73;

S. S. MARIE    PTSUNNY   73  59  61 SE7       30.07F
6HR MIN TEMP:  57; 6HR MAX TEMP:  73;

$$
MIZ004>006-011>014-085-161900-
CENTRAL UPPER MICHIGAN

CITY           SKY/WX    TMP DP  RH WIND       PRES   REMARKS
MANISTIQUE     SUNNY     71  62  72 SE12      30.05S
6HR MIN TEMP:  55; 6HR MAX TEMP:  71;

ESCANABA       SUNNY     70  61  73 SE6       30.04S
6HR MIN TEMP:  53; 6HR MAX TEMP:  71;

MENOMINEE      SUNNY     70  60  70 E7        30.04F
6HR MIN TEMP:  56; 6HR MAX TEMP:  70;

SAWYER-GWINN   MOSUNNY   70  64  83 W3        30.06S
$$
MIZ001>003-009>011-084-161900-
WESTERN UPPER MICHIGAN

CITY           SKY/WX    TMP DP  RH WIND       PRES   REMARKS
IRON MOUNTAIN  SUNNY     73  55  53 S7        30.04F
6HR MIN TEMP:  52; 6HR MAX TEMP:  73;

HOUGHTON       SUNNY     68  57  68 E9        30.04S
6HR MIN TEMP:  53; 6HR MAX TEMP:  69;

COPPER HARBOR    N/A     70  57  63 VRB3      30.04S
6HR MIN TEMP:  57; 6HR MAX TEMP:  70;

IRONWOOD       CLOUDY    73  57  57 VRB7      29.99F
6HR MIN TEMP:  56; 6HR MAX TEMP:  74;

$$

ABBREVIATIONS USED IN REMARKS
   TC - TEMPERATURE IN CELSIUS
  WCI - WIND CHILL INDEX
   HX - HEAT INDEX
  VSB - VISIBILITY





USA.gov is the U.S. government's official web portal to all federal, state and local government web resources and services.